This is the latest recevied weather packets stored in our database for station/object WP3OF. If no packets are shown the sender has not sent any weather packets the latest 1 day(s).
| Time | Temp. | Humidity | Pressure | Rain* | Wind** | Luminosity | Snow |
|---|---|---|---|---|---|---|---|
| 1778012845 | - | - | - | 0 mm | 3.58 m/s, 316° | - | - |
| 1778012541 | - | - | - | 0 mm | 3.58 m/s, 315° | - | - |
| 1778012238 | - | - | - | 0 mm | 3.13 m/s, 336° | - | - |
| 1778011936 | - | - | - | 0 mm | 4.47 m/s, 331° | - | - |
| 1778011634 | - | - | - | 0 mm | 3.58 m/s, 334° | - | - |
| 1778011330 | - | - | - | 0 mm | 2.68 m/s, 325° | - | - |
| 1778011026 | - | - | - | 0 mm | 2.68 m/s, 340° | - | - |
| 1778010724 | - | - | - | 0 mm | 3.58 m/s, 333° | - | - |
| 1778010421 | - | - | - | 0 mm | 2.68 m/s, 23° | - | - |
| 1778010117 | - | - | - | 0 mm | 2.68 m/s, 20° | - | - |
| 1778009813 | - | - | - | 0 mm | 2.24 m/s, 8° | - | - |
| 1778009510 | - | - | - | 0 mm | 4.02 m/s, 29° | - | - |
| 1778009209 | - | - | - | 0 mm | 2.24 m/s, 31° | - | - |
| 1778008906 | - | - | - | 0 mm | 4.02 m/s, 36° | - | - |
| 1778008605 | - | - | - | 0 mm | 4.02 m/s, 14° | - | - |
| 1778008302 | - | - | - | 0 mm | 3.58 m/s, 14° | - | - |
| 1778007998 | - | - | - | 0 mm | 1.34 m/s, 25° | - | - |
| 1778007698 | - | - | - | 0 mm | 3.13 m/s, 21° | - | - |
| 1778007395 | - | - | - | 0 mm | 4.47 m/s, 33° | - | - |
| 1778007091 | - | - | - | 0 mm | 3.13 m/s, 42° | - | - |
| 1778006788 | - | - | - | 0 mm | 5.81 m/s, 30° | - | - |
| 1778006485 | - | - | - | 0 mm | 5.36 m/s, 51° | - | - |
| 1778006182 | - | - | - | 0 mm | 4.92 m/s, 62° | - | - |
| 1778005880 | - | - | - | 0 mm | 5.36 m/s, 30° | - | - |
| 1778005576 | - | - | - | 0 mm | 4.02 m/s, 60° | - | - |
* Rain latest hour (hover to see other rain measurements)
** Current wind speed in m/s (hover to see current wind gust speed)